Regional Weather Roundup
Issued by NWS

Home | Current Version | Previous Version | Text Only | Print | Product List | Glossary On
Versions: 1 2 3 4 5 6 7 8 9 10 11 12 13 14 15 16 17 18 19 20 21 22 23 24 25 26 27 28 29 30 31 32 33 34 35 36 37 38 39 40 41 42 43 44 45 46 47 48 49 50
000
ASUS42 KKEY 251710
RWRKEY

FLORIDA REGIONAL WEATHER ROUNDUP FOR THE FLORIDA KEYS
NATIONAL WEATHER SERVICE KEY WEST FLORIDA
100 PM EDT SAT APR 25 2015

...SOUTH FLORIDA AND THE KEYS...

CITY           SKY/WX    TMP DP  RH WIND       PRES   REMARKS
FORT MYERS     MOSUNNY   88  74  63 SW13G23   29.93F HX  96
SW REGIONAL AP MOSUNNY   89  73  59 SW18G24   29.94F HX  97
NAPLES         MOSUNNY   86  74  67 W12       29.95S HX  94
MIAMI          PTSUNNY   87  74  64 S10G22    29.94F HX  95
WEST KENDALL   PTSUNNY   90  74  59 S8        29.93F HX  99
HOMESTEAD      MOSUNNY   86  75  69 S13G18    29.93F HX  96
MARATHON       SUNNY     90  76  63 S8        29.94F HX 101
BOCA CHICA NAS MOSUNNY   88  75  65 S10       29.94F HX  97
KEY WEST INTL  SUNNY     85  75  72 S10       29.95F HX  93

...INTERNATIONAL WEATHER...

CITY           SKY/WX    TMP DP  RH WIND       PRES   REMARKS
NASSAU BAHAMAS MOSUNNY   84  72  65 SE6       29.97F
CANCUN MEXICO  MOSUNNY   90  75  62 SE14      29.91F HX 100
COZUMEL MEXICO MOSUNNY   86  73  66 SE10      29.92F HX  93

ADJACENT COASTAL WATERS...

STATION/POSITION TIME  SKY/WX   TEMP    WIND        PRES    WAVE
                                AIR SEA DIR/SP/G            HT/PER
                 (UTC)          (F)     (DEG/KT/KT) (MB)    (FT/S)
PULASKI SHOAL LI 1600            80     190/ 10/ 11 1014.1F
SAND KEY         1650            81     180/ 10/ 12 1014.0F
SOMBRERO KEY     1700            82     190/  8/ 10 1014.5F
LONG KEY         1600            82 86  220/  8/ 10 1015.3F
MOLASSES REEF    1700            81 82  200/ 13/ 14 1013.8F
FOWEY ROCKS      NOT AVBL

$$


USA.gov is the U.S. government's official web portal to all federal, state and local government web resources and services.